TimeEDT,TemperatureF,Dew PointF,Humidity,Sea Level PressureIn,VisibilityMPH,Wind Direction,Wind SpeedMPH,Gust SpeedMPH,PrecipitationIn,Events,Conditions,WindDirDegrees,DateUTC
12:15 AM,62.6,53.6,72,29.84,10.0,NNW,10.4,16.1,N/A,,Overcast,340,2012-10-29 04:15:00
12:35 AM,60.8,51.8,72,29.84,10.0,NW,5.8,-,N/A,,Overcast,320,2012-10-29 04:35:00
12:55 AM,60.8,50.0,68,29.84,10.0,NNW,16.1,24.2,N/A,,Overcast,330,2012-10-29 04:55:00
1:15 AM,60.8,50.0,68,29.85,10.0,NNW,11.5,23.0,N/A,,Overcast,330,2012-10-29 05:15:00
1:35 AM,60.8,50.0,68,29.85,10.0,North,8.1,16.1,N/A,,Overcast,350,2012-10-29 05:35:00
1:55 AM,60.8,48.2,63,29.84,10.0,NNW,10.4,17.3,N/A,,Overcast,340,2012-10-29 05:55:00
2:15 AM,59.0,48.2,67,29.84,10.0,NNW,8.1,-,N/A,,Overcast,340,2012-10-29 06:15:00
2:35 AM,59.0,48.2,67,29.84,10.0,NNW,8.1,-,N/A,,Mostly Cloudy,340,2012-10-29 06:35:00
2:55 AM,59.0,50.0,72,29.84,10.0,NNW,9.2,-,N/A,,Overcast,340,2012-10-29 06:55:00
3:15 AM,59.0,48.2,67,29.83,10.0,NNW,11.5,20.7,N/A,,Overcast,330,2012-10-29 07:15:00
3:35 AM,59.0,48.2,67,29.83,10.0,North,10.4,23.0,N/A,,Mostly Cloudy,350,2012-10-29 07:35:00
3:55 AM,59.0,48.2,67,29.83,10.0,NNW,9.2,16.1,N/A,,Mostly Cloudy,340,2012-10-29 07:55:00
4:15 AM,59.0,48.2,67,29.83,10.0,North,9.2,-,N/A,,Mostly Cloudy,350,2012-10-29 08:15:00
4:35 AM,57.2,48.2,72,29.83,10.0,NNW,8.1,-,N/A,,Scattered Clouds,340,2012-10-29 08:35:00
4:55 AM,57.2,46.4,67,29.83,10.0,North,10.4,16.1,N/A,,Scattered Clouds,350,2012-10-29 08:55:00
5:35 AM,55.4,46.4,72,29.84,10.0,North,5.8,-,N/A,,Scattered Clouds,350,2012-10-29 09:35:00
5:55 AM,55.4,46.4,72,29.85,10.0,North,4.6,-,N/A,,Scattered Clouds,350,2012-10-29 09:55:00
6:15 AM,53.6,46.4,77,29.85,10.0,North,4.6,-,N/A,,Clear,350,2012-10-29 10:15:00
6:35 AM,53.6,46.4,77,29.86,10.0,North,4.6,-,N/A,,Clear,350,2012-10-29 10:35:00
6:55 AM,53.6,44.6,72,29.86,10.0,NNW,5.8,-,N/A,,Clear,340,2012-10-29 10:55:00
7:15 AM,53.6,44.6,72,29.87,10.0,NNW,8.1,-,N/A,,Clear,340,2012-10-29 11:15:00
7:35 AM,53.6,44.6,72,29.87,10.0,NNW,6.9,-,N/A,,Clear,340,2012-10-29 11:35:00
7:55 AM,53.6,44.6,72,29.88,10.0,North,5.8,-,N/A,,Clear,350,2012-10-29 11:55:00
8:15 AM,53.6,44.6,72,29.89,10.0,North,4.6,-,N/A,,Clear,350,2012-10-29 12:15:00
8:35 AM,53.6,44.6,72,29.90,10.0,NNW,5.8,-,N/A,,Clear,340,2012-10-29 12:35:00
8:55 AM,55.4,44.6,67,29.91,10.0,NNW,6.9,-,N/A,,Clear,340,2012-10-29 12:55:00
9:15 AM,57.2,46.4,67,29.91,10.0,NW,10.4,-,N/A,,Clear,320,2012-10-29 13:15:00
9:35 AM,59.0,44.6,59,29.92,10.0,NNW,10.4,-,N/A,,Clear,340,2012-10-29 13:35:00
9:55 AM,59.0,44.6,59,29.92,10.0,NNW,10.4,19.6,N/A,,Clear,330,2012-10-29 13:55:00
10:15 AM,60.8,46.4,59,29.91,10.0,NW,9.2,17.3,N/A,,Clear,320,2012-10-29 14:15:00
10:35 AM,62.6,46.4,55,29.91,10.0,NNW,12.7,19.6,N/A,,Clear,340,2012-10-29 14:35:00
10:55 AM,62.6,46.4,55,29.90,10.0,North,11.5,20.7,N/A,,Clear,350,2012-10-29 14:55:00
11:15 AM,64.4,46.4,52,29.90,10.0,NW,10.4,18.4,N/A,,Clear,320,2012-10-29 15:15:00
11:35 AM,64.4,46.4,52,29.90,10.0,NW,11.5,21.9,N/A,,Clear,310,2012-10-29 15:35:00
11:55 AM,64.4,46.4,52,29.90,10.0,NW,16.1,21.9,N/A,,Clear,310,2012-10-29 15:55:00
12:15 PM,64.4,46.4,52,29.90,10.0,WNW,15.0,21.9,N/A,,Clear,300,2012-10-29 16:15:00
12:35 PM,66.2,44.6,46,29.89,10.0,WNW,13.8,21.9,N/A,,Clear,300,2012-10-29 16:35:00
12:55 PM,66.2,44.6,46,29.88,10.0,NNW,15.0,20.7,N/A,,Clear,330,2012-10-29 16:55:00
1:15 PM,68.0,44.6,43,29.86,10.0,NW,10.4,-,N/A,,Clear,310,2012-10-29 17:15:00
1:55 PM,68.0,42.8,40,29.84,10.0,WNW,10.4,19.6,N/A,,Clear,300,2012-10-29 17:55:00
2:15 PM,69.8,42.8,38,29.84,10.0,WNW,15.0,21.9,N/A,,Clear,300,2012-10-29 18:15:00
2:55 PM,69.8,42.8,38,29.83,10.0,WNW,11.5,19.6,N/A,,Clear,300,2012-10-29 18:55:00
3:15 PM,69.8,44.6,40,29.82,10.0,WNW,10.4,16.1,N/A,,Clear,290,2012-10-29 19:15:00
3:35 PM,68.0,42.8,40,29.82,10.0,WNW,8.1,20.7,N/A,,Clear,290,2012-10-29 19:35:00
3:55 PM,69.8,42.8,38,29.81,10.0,WNW,11.5,16.1,N/A,,Clear,300,2012-10-29 19:55:00
4:15 PM,68.0,42.8,40,29.81,10.0,WNW,11.5,17.3,N/A,,Clear,290,2012-10-29 20:15:00
4:35 PM,68.0,44.6,43,29.81,10.0,WNW,8.1,19.6,N/A,,Clear,290,2012-10-29 20:35:00
4:55 PM,68.0,44.6,43,29.80,10.0,WNW,8.1,16.1,N/A,,Clear,300,2012-10-29 20:55:00
5:15 PM,68.0,42.8,40,29.80,10.0,NW,10.4,20.7,N/A,,Clear,310,2012-10-29 21:15:00
5:35 PM,66.2,42.8,43,29.80,10.0,WNW,9.2,18.4,N/A,,Clear,300,2012-10-29 21:35:00
6:15 PM,64.4,42.8,45,29.81,10.0,NW,10.4,20.7,N/A,,Clear,310,2012-10-29 22:15:00
6:35 PM,62.6,42.8,48,29.81,10.0,NW,9.2,-,N/A,,Clear,310,2012-10-29 22:35:00
6:55 PM,62.6,44.6,52,29.81,10.0,WNW,6.9,-,N/A,,Clear,300,2012-10-29 22:55:00
7:15 PM,60.8,44.6,55,29.81,10.0,NW,4.6,-,N/A,,Clear,310,2012-10-29 23:15:00
7:35 PM,60.8,44.6,55,29.82,10.0,Calm,Calm,-,N/A,,Clear,0,2012-10-29 23:35:00
7:55 PM,59.0,46.4,63,29.82,10.0,WNW,3.5,-,N/A,,Clear,300,2012-10-29 23:55:00
8:15 PM,57.2,46.4,67,29.83,10.0,Calm,Calm,-,N/A,,Clear,0,2012-10-30 00:15:00
8:35 PM,53.6,46.4,77,29.83,10.0,Calm,Calm,-,N/A,,Clear,0,2012-10-30 00:35:00
8:55 PM,53.6,46.4,77,29.83,10.0,Calm,Calm,-,N/A,,Clear,0,2012-10-30 00:55:00
11:35 PM,46.4,44.6,93,29.87,10.0,Calm,Calm,-,N/A,,Clear,0,2012-10-30 03:35:00
11:55 PM,46.4,44.6,93,29.87,10.0,Calm,Calm,-,N/A,,Clear,0,2012-10-30 03:55:00